www.pogodaiklimat.ru

Погода и климат >> Архив погоды >> Россия >> Камчатский край >> Пущино


ПОГОДА в Пущино

  • Прогноз погоды в Пущино
  • Монитор погоды в Пущино

АРХИВ ПОГОДЫ в Пущино

Время (UTC), дата Ветер
(напр.,м/с)
 
Видим.   Явления Облачность Т
(С)
Тd
(С)
f
(%)
Тe
(С)
Тes
(С)
Комфортность P
(гПа)
Po
(гПа)
Тmin
(С)
Tmax
(С)
R
(мм)
R24
(мм)
S
(см)
09 12.02 ЮЗ 3
{10}
20 км {ливн. осадки} 10/0
[Ci fib]
-13.5 -19.6 60 -20 -20 1012.7 973.3 -10.4 0.0
12 12.02 ЮЗ 4 20 км {ливн. осадки} 10/0
[Ci fib]
-13.9 -18.1 70 -21 -21 1012.9 973.3
15 12.02 ЮЗ 3 20 км 10/0
[Ci fib]
-14.5 -19.3 67 -21 -21 1015.7 976.0
18 12.02 З 1 20 км 4/0
[Ci fib]
-21.1 -23.6 80 -24 -24 1018.1 977.3
21 12.02 штиль 0 20 км ясно -29.9 -33.7 69 -30 -30 1020.0 977.6 -29.9 154
00 13.02 ЮЗ 1 20 км 10/0
[Ci fib]
-19.4 -25.6 58 -22 -20 1019.5 978.8 -30.4
03 13.02 В 1 20 км 10/0
[Ac As]
-15.1 -20.9 61 -18 -18 1018.6 978.7
06 13.02 штиль 0 20 км 10/0
[Ac As]
-15.7 -21.1 63 -16 -16 1017.3 977.3
09 13.02 В 1 2000 м слаб. ливневой снег 10/10 210 м
[Cb cap]
-16.5 -19.4 78 -19 -19 1016.0 976.0 -14.2 0.2
12 13.02 СВ 2 2000 м слаб. ливневой снег 10/10 270 м
[Cb cap]
-15.2 -17.9 80 -20 -20 1012.1 972.4
15 13.02 В 2 2000 м слаб. ливневой снег 10/10 270 м
[Cb cap]
-15.8 -18.6 79 -21 -21 1007.4 967.8
18 13.02 В 1 2000 м слаб. ливневой снег 10/10 240 м
[Cb cap]
-16.3 -18.9 80 -19 -19 1003.2 963.7
21 13.02 СВ 1 2000 м слаб. ливневой снег 10/10 270 м
[Cb cap]
-16.0 -18.7 80 -19 -19 999.2 959.8 -16.5 5 156
00 14.02 З 1 2000 м слаб. ливневой снег 10/10 240 м
[Cb cap]
-15.4 -18.8 75 -18 -18 994.6 955.6
03 14.02 В 1 2000 м слаб. ливневой снег 10/10 240 м
[Cb cap]
-14.0 -17.1 77 -16 -16 990.4 951.7
06 14.02 штиль 0 2000 м слаб. ливневой снег 10/10 270 м
[Cb cap]
-14.3 -16.8 81 -14 -14 987.2 948.6
09 14.02 З 1 2000 м слаб. ливневой снег 10/10 400 м
[Cb cap]
-16.1 -18.4 82 -19 -19 986.8 948.0 -14.0 4
12 14.02 штиль 0 10 км слаб. ливневой снег 10/8 600 м
[Cb cap Ac trans]
-19.1 -21.7 80 -19 -19 985.3 946.0
15 14.02 З 1 10 км в посл. час ливневой снег 10/6 600 м
[Cb cap Ac trans]
-18.9 -21.8 78 -22 -22 984.2 945.1
18 14.02 З 2 10 км слаб. ливневой снег 10/8 600 м
[Cb cap Ac trans]
-15.7 -18.3 80 -21 -21 983.3 944.6
21 14.02 З 2 2000 м слаб. ливневой снег 10/10 400 м
[Cb cap]
-13.3 -15.6 83 -18 -18 983.3 945.0 -20.7 0.7 158
00 15.02 З 2 2000 м слаб. ливневой снег 10/10 360 м
[Cb cap]
-10.5 -14.1 75 -15 -15 983.9 946.0
03 15.02 СЗ 2 10 км осадки на расстоянии {ливн. осадки} 10/5 600 м
[Cb cap Ci fib]
-7.4 -15.7 51 -11 -10 982.9 945.4
06 15.02 ЮЗ 3 10 км осадки на расстоянии {ливн. осадки} 10/5 1000 м
[Cb cap Ci fib]
-10.4 -18.8 50 -16 -16 984.9 947.0
09 15.02 ЮЗ 3 10 км 10/6 1000 м
[Sc Cs]
-10.8 -18.1 55 -17 -17 987.4 949.3 -5.9 0.4
12 15.02 ЮЗ 2 10 км 10/5 1000 м
[Sc Cs]
-11.8 -20.1 50 -16 -16 987.9 949.6
15 15.02 штиль 0 10 км 10/5 1000 м
[Sc Ac trans Ci fib]
-16.7 -22.2 62 -17 -17 989.7 950.7
18 15.02 ЮЗ 1 10 км 10/5 600 м
[Sc Ac trans Ci fib]
-18.9 -22.2 75 -22 -22 990.1 950.7
21 15.02 ЮЗ 3 20 км 10/3 1000 м
[Sc Ac trans Ci fib]
-12.7 -21.0 50 -19 -19 988.6 950.2 -18.9 154
00 16.02 ЮЗ 1 20 км 10/0
[Ac trans Ci fib]
-7.4 -22.8 28 -9 -9 989.7 952.0
03 16.02 З 2 20 км 10/3 1000 м
[Sc Ac trans Ci fib]
-8.7 -22.0 33 -13 -13 988.5 950.7
06 16.02 ЮЗ 2 20 км 10/3 1000 м
[Sc Ac trans Ci fib]
-10.4 -21.1 41 -15 -15 988.8 950.7
09 16.02 ЮЗ 2 20 км 10/3 1000 м
[Sc Ac trans Ci fib]
-12.4 -20.7 50 -17 -17 989.1 950.7 -6.4
12 16.02 ЮЗ 2 20 км 10/0
[Ac trans Ci fib]
-14.0 -19.1 65 -19 -19 990.7 952.0
15 16.02 ЮЗ 3 20 км 10/0
[Ac trans Ci fib]
-13.8 -20.1 59 -20 -20 990.6 952.0
18 16.02 ЮЗ 4 20 км 10/0
[Ac trans Ci fib]
-14.1 -18.5 69 -22 -22 990.7 952.0
21 16.02 ЮЗ 3 20 км 10/3 1000 м
[Sc Ac trans Ci fib]
-14.4 -18.6 70 -21 -21 991.3 952.5 -15.5 153
00 17.02 ЮЗ 4 20 км 10/0
[Ci fib]
-11.8 -17.0 65 -19 -19 993.1 954.7
03 17.02 ЮЗ 3 20 км 10/0
[Ac trans Ci fib]
-9.8 -18.5 49 -15 -15 991.4 953.3
06 17.02 ЮЗ 2 20 км осадки на расстоянии 10/1 1000 м
[Cb cap Ac trans Ci fib]
-11.2 -19.1 52 -16 -16 993.0 954.7
09 17.02 ЮЗ 1 20 км 10/0
[Ac trans Ci fib]
-20.1 -22.0 85 -23 -23 995.8 956.0 -9.5
12 17.02 З 3 20 км 10/0
[Cs]
-17.5 -20.8 75 -25 -25 996.7 957.3
15 17.02 З 3 20 км 10/0
[Ci fib]
-18.7 -22.2 74 -26 -26 996.9 957.3
18 17.02 З 3 20 км 10/0
[Ci fib]
-19.7 -23.4 72 -27 -27 998.5 958.7
21 17.02 З 3 20 км 10/0
[Ac As]
-17.4 -21.4 71 -24 -24 998.9 959.4 -21.0 152
00 18.02 ЮЗ 4 20 км 10/1 1000 м
[Sc Cs]
-13.3 -20.4 55 -21 -21 1000.2 961.3
03 18.02 ЮЗ 4 20 км 10/0
[Ci fib]
-10.3 -19.7 46 -17 -17 999.8 961.3
06 18.02 ЮЗ 4 20 км 8/0
[Ac trans Ci fib]
-10.9 -19.5 49 -18 -18 1001.3 962.7
09 18.02 З 3 20 км 10/0
[Ci fib]
-16.2 -20.7 68 -23 -23 1004.8 965.3 -10.1
12 18.02 З 3 20 км 10/3 1000 м
[Sc Ci]
-18.3 -23.2 65 -26 -26 1006.6 966.7
15 18.02 З 3 20 км 10/1 1000 м
[Sc Cs]
-16.4 -21.4 65 -23 -23 1007.7 968.0
18 18.02 З 3 20 км 10 баллов -16.9 -21.4 68 -24 -24 1009.1 969.3
21 18.02 З 4 20 км 10/0
[Ac As Cs]
-16.4 -20.3 72 -25 -25 1009.0 969.3 -18.7 149
00 19.02 ЮЗ 3 20 км 10 баллов -11.9 -17.1 65 -18 -18 1009.8 970.7
03 19.02 ЮЗ 4 20 км 10 баллов -9.8 -15.9 61 -17 -17 1009.5 970.7
06 19.02 ЮЗ 3 20 км 10 баллов -8.5 -15.7 56 -14 -14 1010.6 972.0

 

Местоположение метеостанции Пущино (Камчатский край, Россия): широта 54.18 долгота 158.00 высота над уровнем моря 303 м.

В архиве по умолчанию представлена погода в Пущино за последнюю неделю. Архивные данные за месяц целиком и за предыдущие месяцы, начиная с января 2011 года, Вы можете получить, выбрав интересующий диапазон дат из раскрывающегося списка и нажав кнопку "Ввод!".


*Определитесь, кто Вы:
робот инопланетянин человек

Внимание! Время в таблицах - всемирное. Для получения местного времени необходимо прибавить поправку, которая равна 12 ч.

Смотрите также архив погоды в соседних городах и на ближайших метеорологических станциях:

Погода в Мильково (Камчатский край, Россия) (64 км)
Погода в Начиках (Камчатский край, Россия) (120 км)
Погода в Долиновке (Камчатский край, Россия) (123 км)
Погода в Сосновке (Камчатский край, Россия) (124 км)
Погода в Семячике (Камчатский край, Россия) (124 км)
Погода в Петропавловск-Камч. 2 (Камчатский край, Россия) (127 км)
Погода в Соболево (Камчатский край, Россия) (137 км)
Погода в Петропавловск-Камчатском (Камчатский край, Россия) (151 км)
Погода в Петропавловском Маяке (Камчатский край, Россия) (152 км)
Погода в Большерецке (Камчатский край, Россия) (188 км)

Пояснения к столбцам:

Ветер - указаны скорость ветра в м/с - средняя за 10 мин, порывы в срок и между сроками (в фигурных скобках) и направление, откуда дует ветер: С - северный, СВ - северо-восточный, В - восточный, ЮВ - юго-восточный, Ю - южный, ЮЗ - юго-западный, З - западный, СЗ - северо-западный.
Видимость - горизонтальная дальность видимости в метрах или километрах. При видимости от 1 до 10 км при отсутствии осадков обычно наблюдается дымка, при ухудшении видимости до 1 км и менее - туман. В сухую погоду видимость может ухудшаться дымом, пылью или мглою.
Явления - указаны атмосферные явления, наблюдавшиеся в срок или в последний час перед сроком; фигурными скобками обозначены явления, наблюдавшиеся между сроками (за 1-3 часа до срока); квадратными скобками обозначены град или гололедные отложения с указанием их диаметра в мм.
Облачность - указаны через наклонную черту общая и нижняя облачность в баллах и высота нижней границы облаков в метрах; квадратными скобками обозначены формы облаков: Ci - перистые, Cs - перисто-слоистые, Cc - перисто-кучевые, Ac - высококучевые, As - высокослоистые, Sc - слоисто-кучевые, Ns - слоисто-дождевые, Cu - кучевые, Cb - кучево-дождевые. Подробнее классификацию облаков см. в Атласе облаков (PDF).
T - Температура воздуха - температура, измеренная на высоте 2 м над землей.
Td - Температура точки росы - температура, при понижении до которой содержащийся в воздухе водяной пар достигнет насыщения.
f - Относительная влажность воздуха - влажноcть воздуха, измеренная на высоте 2 м над землей.
Te - Эффективная температура - температура, которую ощущает одетый по сезону человек в тени. Характеристика душности погоды. При расчете учитывается влияние влажности воздуха и скорости ветра на теплоощущения человека.
Tes - Эффективная температура на солнце - температура, которую ощущает человек, с поправкой на солнечный нагрев. Характеристика знойности погоды. Зависит от высоты солнца над горизонтом, облачности и скорости ветра. Ночью, в пасмурную погоду, а также при ветре 12 м/с и более поправка равна нулю.
P - Атмосферное давление - приведенное к уровню моря атмосферное давление.
Po - Атмосферное давление - измеренное на уровне метеостанции атмосферное давление.
Tmin - Минимальная температура - минимум температуры воздуха на высоте 2 м над землей.
Tmax - Максимальная температура - максимум температуры воздуха на высоте 2 м над землей.
R - Количество осадков - Количество выпавших осадков за период времени, мм. При наведении курсора мыши на число - период времени, за который выпало указанное количество осадков.
R24 - Количество осадков - Количество выпавших осадков за 24 часа, мм.
S - Снежный покров - Высота снежного покрова, см. При наведении курсора мыши на число - состояние снежного покрова и степень покрытия местности в баллах.